Location: Mississauga
(43.5802°N, 79.6166°W)
Time: 07:16:57
(UTC-04:00)

Cosmos 1437 Rocket - Visible Passes

Search period start: 01 September 2014 00:00
Search period end: 11 September 2014 00:00
Orbit: 525 x 568 km, 81.2° (Epoch: 01 September)

Date Brightness Start Highest point End Pass type
(mag) Time Alt. Az. Time Alt. Az. Time Alt. Az.
01 Sep 2.9 20:27:05 10° NNW 20:30:59 77° W 20:34:50 10° S visible
02 Sep 3.1 20:21:48 10° NNW 20:25:41 70° W 20:29:32 10° S visible
03 Sep 3.3 20:16:31 10° NNW 20:20:23 63° W 20:24:12 10° S visible
04 Sep 3.5 20:11:14 10° NNW 20:15:04 58° W 20:18:53 10° S visible
